Probability
0 0 0 0 0 0 0 0 0 0 0 0 0 0 0 0 0 0 0 0 0 0 0 0 0 0 0 0 0 0 0 0 0 0 0 0 0 0
0 0 0 0 0 0 0 0 0 0 0 0 0 0 0 0 0 0 0 0 0 0 0 0 0 0 0 0 0 0 0 0 1 1 0 0 0 0
0 0 0 0 0 0 0 0 0 0 0 0 0 0 0 0 0 0 0 0 0 0 0 0 0 0 0 0 0 0 0 1 2 2 1 0 0 0
0 0 0 0 0 0 0 0 0 0 0 0 0 0 0 0 0 0 0 0 0 0 0 0 0 0 0 0 0 0 0 1 2 2 1 0 0 0
0 0 0 0 0 0 0 0 0 0 0 0 0 0 0 0 0 0 0 0 0 0 0 0 0 0 0 0 0 0 0 0 1 2 1 0 0 0
0 0 0 0 0 0 0 0 0 0 0 0 0 0 0 0 0 0 0 0 0 0 0 0 0 0 0 0 0 0 0 0 0 1 1 0 0 0
0 0 0 0 0 0 0 0 0 0 0 0 0 0 0 0 0 0 0 0 0 0 0 0 0 0 0 0 0 0 0 0 0 0 0 0 0 1
0 0 0 0 0 0 0 0 0 0 0 0 0 0 0 0 0 0 0 0 0 0 0 0 0 0 0 0 0 0 0 0 0 0 0 0 0 1
0 0 0 0 0 0 0 0 0 0 0 0 0 0 0 0 0 0 0 0 0 0 0 0 0 0 0 0 0 0 0 0 0 0 0 0 0 1
0 0 0 0 0 0 0 0 0 0 0 0 0 0 0 0 0 0 0 0 0 0 0 0 0 0 0 0 0 0 0 0 0 0 0 0 0 0
0 0 0 0 0 0 0 0 0 0 0 0 0 0 0 0 0 0 0 0 0 0 0 0 0 0 0 0 0 0 0 0 0 0 0 0 0 0
0 0 0 0 0 0 0 0 0 0 0 0 0 0 0 0 0 0 0 0 0 0 0 0 0 0 0 0 0 0 0 0 0 0 0 0 0 0
0 0 0 0 0 0 0 0 0 0 0 0 0 0 0 0 0 0 0 0 0 0 0 0 0 0 0 0 0 0 0 0 0 0 0 0 0 0
0 0 0 0 0 0 0 0 0 0 0 0 0 0 0 0 0 0 0 0 0 0 0 0 0 0 0 0 0 0 0 0 0 0 0 0 0 0
0 0 0 0 0 0 0 0 0 0 0 0 0 0 0 0 0 0 0 0 0 0 0 0 0 0 0 0 0 0 0 0 0 0 0 0 0 0
0 0 0 0 0 0 0 0 0 0 0 0 0 0 0 0 0 0 0 0 0 0 0 0 0 0 0 0 0 0 0 0 0 0 0 0 0 0
0 0 0 0 0 0 0 0 0 0 0 0 0 0 0 0 0 0 0 0 0 0 0 0 0 0 0 0 0 0 0 0 0 0 0 0 0 0
0 0 0 0 0 0 0 0 0 0 0 0 0 0 0 0 0 0 0 0 0 0 0 0 0 0 0 0 0 0 0 0 0 0 0 0 0 0
0 0 0 0 0 0 0 0 0 0 0 0 0 0 0 0 0 0 0 0 0 0 0 0 0 0 0 0 0 0 0 0 0 0 0 0 0 0
0 0 0 0 0 0 0 0 0 0 0 0 0 0 0 0 0 0 0 0 0 0 0 0 0 0 0 0 0 0 0 0 0 0 0 0 0 0
0 0 0 0 0 0 0 0 0 0 0 0 0 0 0 0 0 0 0 0 0 0 0 0 0 0 0 0 0 0 0 0 0 0 0 0 0 0
0 0 0 0 0 0 0 0 0 0 0 0 0 0 0 0 0 0 0 0 0 0 0 0 0 0 0 0 0 0 0 0 0 0 0 0 0 0
0 0 0 0 0 0 0 0 0 0 0 0 0 0 0 0 0 0 0 0 0 0 0 0 0 0 0 0 0 0 0 0 0 0 0 0 0 0
Wind_Speed
2 2 1 1 1 1 1 1 2 4 5 3 2 1 2 2 4 3 3 5 6 5 4 5 6 5 5 5 5 6 6 6 6 6 6 7 7 8
1 2 2 1 1 1 1 1 2 3 4 2 2 2 2 3 5 3 3 6 5 5 5 5 6 6 6 5 5 6 5 6 6 6 7 7 8 8
2 2 3 2 2 2 2 2 2 2 5 4 2 2 2 3 4 3 3 3 3 5 6 6 6 6 5 5 6 6 6 6 6 7 8 8 8 8
3 3 3 2 3 2 2 3 3 3 3 5 3 2 3 3 3 4 3 3 3 5 6 6 7 6 6 6 6 6 6 6 6 7 8 8 8 8
4 4 4 3 4 3 3 3 3 2 2 3 4 3 2 2 3 4 3 3 3 4 5 6 7 7 6 6 6 6 6 6 7 7 8 8 8 8
3 3 4 4 4 4 3 3 3 3 3 3 3 3 2 2 2 3 3 3 3 3 4 5 5 6 6 7 7 7 7 7 7 7 7 8 8 8
3 3 4 4 5 4 4 3 3 3 3 3 3 3 3 2 3 2 4 4 4 2 3 3 3 3 3 5 6 7 8 8 8 8 7 8 8 8
3 3 3 3 4 5 6 6 5 5 4 4 4 4 4 4 3 3 3 3 4 2 2 4 2 3 3 3 7 9 8 8 8 8 8 8 8 8
3 3 3 3 3 3 4 5 5 7 7 6 6 6 5 4 3 4 4 4 5 3 3 5 2 4 4 4 8 8 9 8 8 8 8 9 9 8
3 4 4 4 4 4 4 4 4 5 6 5 6 6 5 4 4 4 4 4 4 2 2 4 3 3 3 4 7 9 8 8 9 9 9 9 9 8
3 3 4 4 6 6 4 4 5 5 6 7 7 7 6 6 4 2 2 2 4 3 2 2 3 3 4 4 4 7 8 7 8 9 8 8 8 7
3 3 5 6 7 7 5 4 5 5 4 4 4 5 4 4 4 4 3 3 3 3 2 2 2 1 3 2 2 3 4 6 8 9 8 7 7 5
3 3 3 6 7 7 6 5 6 5 3 3 3 3 2 2 3 3 3 4 4 4 3 1 2 1 2 4 3 2 3 3 4 5 7 7 8 6
3 3 4 7 7 7 5 5 6 4 2 2 3 3 3 3 3 3 3 4 4 5 4 3 3 3 3 4 5 3 2 3 3 4 3 5 6 7
3 5 7 7 6 4 5 5 3 2 2 3 4 4 3 3 2 2 2 2 3 3 4 4 4 4 4 5 5 4 4 3 3 3 3 3 3 3
2 4 6 6 5 4 3 3 2 2 3 3 4 3 2 2 2 2 2 2 2 3 3 3 4 5 5 6 5 6 4 4 3 3 4 4 3 3
3 2 2 2 2 2 2 2 2 2 2 3 3 3 3 3 2 2 2 2 3 3 3 2 2 3 5 5 5 6 5 5 4 4 3 5 4 4
2 2 3 3 3 3 3 3 3 3 3 3 3 3 3 3 3 2 2 3 3 3 3 2 2 2 2 4 7 7 5 5 4 3 4 5 6 4
1 2 3 3 4 4 3 3 4 4 3 3 4 4 3 3 3 3 3 3 3 3 3 2 2 2 3 5 4 6 5 4 4 4 4 5 7 6
2 3 3 4 4 4 4 4 4 3 3 4 4 4 3 3 3 3 3 4 3 3 3 3 3 4 5 5 5 5 6 5 4 5 5 5 6 8
3 3 4 4 4 4 4 4 4 4 4 3 4 4 4 4 4 4 4 5 4 4 5 5 4 4 3 2 4 5 4 6 7 5 5 4 5 4
4 4 4 4 4 4 4 4 4 4 4 4 4 4 4 4 5 5 4 4 4 4 5 4 2 2 2 4 6 6 6 5 6 9 10 9 5 5
4 4 4 4 4 4 4 4 5 5 4 4 4 4 4 4 4 4 5 4 4 4 4 3 2 2 3 4 5 6 7 6 5 4 5 8 11 14
Wind_Direction
230 231 243 262 264 267 261 240 236 264 268 254 251 274 287 283 301 305 297 303 305 305 308 313 316 303 294 292 290 288 288 294 298 296 297 291 285 282
235 232 246 258 254 256 255 258 247 249 263 269 272 293 291 294 306 301 298 311 305 308 312 310 309 300 292 288 291 291 292 296 299 301 296 288 282 280
235 232 247 253 249 251 250 251 252 248 262 279 281 297 282 285 303 298 292 289 293 309 308 305 302 298 300 300 300 296 295 300 303 303 301 291 280 277
232 235 246 245 246 247 244 248 250 251 256 273 282 282 276 275 286 286 292 286 283 296 300 301 300 296 295 297 301 302 300 302 303 303 300 295 282 279
232 233 243 240 248 251 249 249 252 262 261 265 277 282 280 280 292 293 290 284 279 284 290 292 292 290 290 292 299 302 299 298 300 302 303 302 298 291
248 243 241 235 240 243 248 248 249 254 261 265 273 283 282 284 281 294 303 300 290 283 279 284 288 289 290 290 291 291 290 291 292 296 300 302 303 300
257 254 253 254 256 251 250 245 244 245 251 263 268 274 274 277 271 285 291 302 295 268 287 284 279 269 272 280 286 285 285 285 287 289 291 295 297 297
261 267 266 260 269 272 271 267 259 250 250 254 259 259 264 267 273 273 285 295 288 273 291 284 267 269 273 266 279 285 287 284 282 283 285 288 289 291
252 261 273 273 266 265 273 278 273 270 260 253 255 255 256 249 249 260 260 267 271 275 288 282 269 269 274 281 295 290 284 281 280 282 284 285 284 285
253 251 257 264 263 267 263 263 266 270 266 258 253 258 257 244 230 244 256 277 288 282 274 270 277 272 283 281 289 286 285 288 291 286 285 286 285 285
267 261 258 259 269 275 266 264 269 275 285 276 272 271 268 259 247 238 237 255 277 271 256 259 280 291 284 274 278 290 290 291 296 294 291 289 287 288
273 268 262 267 271 272 260 255 263 272 281 286 284 284 274 251 245 231 221 233 257 267 233 225 252 306 300 278 274 291 294 293 293 295 292 292 290 281
271 272 269 278 280 278 274 260 264 276 275 270 272 272 268 248 242 243 238 232 236 248 231 209 225 254 263 286 292 277 274 285 297 295 293 294 293 285
270 274 279 287 289 287 284 281 282 283 266 261 258 258 257 253 252 251 250 252 250 250 238 220 223 229 250 273 277 282 274 279 283 284 284 292 292 290
277 284 292 293 297 293 288 290 286 262 252 253 252 255 255 254 253 255 255 256 268 263 245 230 224 231 232 243 260 269 285 283 263 262 275 275 276 276
290 289 293 292 296 295 291 289 276 256 249 254 258 263 264 247 242 239 240 245 268 277 256 237 230 225 238 245 248 262 264 264 266 266 273 275 267 259
304 306 304 301 289 285 281 274 270 263 257 258 258 255 255 249 244 237 230 230 237 252 272 276 257 251 245 241 248 252 257 259 257 265 273 281 271 255
315 273 272 269 265 265 265 269 262 259 259 261 255 248 245 243 245 237 228 228 240 245 253 256 265 295 294 272 234 244 253 258 263 261 257 268 277 267
282 257 260 263 267 266 261 260 262 262 259 257 250 245 242 239 237 236 233 234 240 248 251 239 229 232 264 285 276 234 247 264 270 271 258 255 267 273
247 248 256 260 263 264 263 262 264 264 260 252 242 240 236 231 231 233 228 227 240 250 257 242 226 229 240 262 277 276 257 249 251 266 275 273 267 271
253 253 254 256 261 261 263 262 259 259 260 245 237 236 234 229 231 232 230 228 231 235 246 253 251 259 268 275 275 280 274 263 262 261 264 271 279 274
252 253 255 254 257 260 263 263 261 259 254 239 237 235 231 230 231 232 229 227 231 235 248 263 265 255 228 234 260 277 288 293 288 284 275 257 248 247
252 253 253 255 256 259 262 261 259 260 252 239 235 235 231 232 231 228 229 228 232 239 246 255 260 247 243 245 259 272 280 290 294 295 286 280 273 264